Weather History for Charleroi, Belgium

Change the Weather History Date:

Tuesday, December 11, 2012

  Actual Average Record
Temperature  
Mean Temperature 28 °F -  
Max Temperature 31 °F 40 °F 57 °F (1997)
Min Temperature 24 °F 32 °F -72 °F (2002)
Degree Days  
Heating Degree Days 38    
Moisture  
Dew Point 24 °F    
Average Humidity 82    
Maximum Humidity 86    
Minimum Humidity 68    
Precipitation  
Precipitation 0.00 in - - ()
Sea Level Pressure  
Sea Level Pressure 30.29 in    
Wind  
Wind Speed 5 mph ()    
Max Wind Speed 9 mph    
Max Gust Speed -    
Visibility 6.2 miles    
Events      
Averages and records for this station are not official NWS values.
T = Trace of Precipitation, MM = Missing Value Source: Averaged Metar Reports

Daily Weather History Graph

Daily Weather History Graph

Search for Another Location

Airport:

Trip Planner

Search our weather history database for the weather conditions in past years. The results will help you decide how hot, cold, wet, or windy it might be!

Date:

Astronomy

Dec. 11, 2012 Rise Set
Actual Time 8:32 AM CET 4:38 PM CET
Civil Twilight 7:54 AM CET 5:16 PM CET
Nautical Twilight 7:12 AM CET 5:58 PM CET
Astronomical Twilight 6:32 AM CET 6:38 PM CET
Moon 6:01 AM CET (12/11) 3:09 PM CET (12/11)
Length of Visible Light 9h 22m
Length of Day
8h 05m
Waning Crescent, 5% of the Moon is Illuminated
Dec 11
Waning Crescent
Dec 13
New
Dec 20
First Quarter
Dec 28
Full
Jan 5
Last Quarter

Hourly Weather History & Observations

Time (CET) Temp. Windchill Dew Point Humidity Pressure Visibility Wind Dir Wind Speed Gust Speed Precip Events Conditions
12:20 AM 30.2 °F 24.3 °F 26.6 °F 86% 30.18 in - NNW 5.8 mph - N/A   Clear
12:50 AM 30.2 °F 25.4 °F 26.6 °F 86% 30.18 in - NW 4.6 mph - N/A   Clear
1:00 AM 29 °F - 26 °F 84% 30.23 in 9 mi NW 4.5 mph - -   Scattered Clouds
1:20 AM 30.2 °F 24.3 °F 26.6 °F 86% 30.18 in - NW 5.8 mph - N/A   Clear
1:50 AM 30.2 °F 23.4 °F 26.6 °F 86% 30.18 in - NW 6.9 mph - N/A   Clear
2:20 AM 30.2 °F 24.3 °F 24.8 °F 80% 30.18 in - NNW 5.8 mph - N/A   Clear
2:50 AM 30.2 °F 24.3 °F 24.8 °F 80% 30.21 in - NNW 5.8 mph - N/A   Clear
3:20 AM 28.4 °F 22.2 °F 24.8 °F 86% 30.21 in - NW 5.8 mph - N/A   Clear
3:50 AM 28.4 °F 22.2 °F 24.8 °F 86% 30.21 in - NW 5.8 mph - N/A   Clear
4:00 AM 28 °F - 25 °F 83% 30.27 in 9 mi NW 6.7 mph - -   Scattered Clouds
4:20 AM 28.4 °F 22.2 °F 24.8 °F 86% 30.21 in - NW 5.8 mph - N/A   Clear
4:50 AM 28.4 °F 22.2 °F 24.8 °F 86% 30.21 in - NW 5.8 mph - N/A   Clear
5:20 AM 28.4 °F 21.2 °F 24.8 °F 86% 30.24 in - NW 6.9 mph - N/A   Clear
5:50 AM 28.4 °F 22.2 °F 23.0 °F 80% 30.24 in - NW 5.8 mph - N/A   Clear
6:20 AM 28.4 °F 22.2 °F 23.0 °F 80% 30.24 in - NNW 5.8 mph - N/A   Clear
6:50 AM 28.4 °F 22.2 °F 23.0 °F 80% 30.24 in - NNW 5.8 mph - N/A   Clear
7:00 AM 28 °F - 24 °F 77% 30.30 in 9 mi NNW 4.5 mph - -  
7:20 AM 28.4 °F 22.2 °F 23.0 °F 80% 30.27 in 6.2 mi North 5.8 mph - N/A   Partly Cloudy
7:50 AM 28.4 °F 22.2 °F 23.0 °F 80% 30.27 in 6.2 mi NNW 5.8 mph - N/A   Partly Cloudy
8:20 AM 28.4 °F 22.2 °F 23.0 °F 80% 30.27 in 6.2 mi NNW 5.8 mph - N/A   Partly Cloudy
8:50 AM 28.4 °F 21.2 °F 23.0 °F 80% 30.27 in 6.2 mi North 6.9 mph - N/A   Scattered Clouds
9:20 AM 28.4 °F 22.2 °F 24.8 °F 86% 30.30 in 6.2 mi North 5.8 mph - N/A   Mostly Cloudy
9:50 AM 28.4 °F 19.7 °F 24.8 °F 86% 30.30 in 6.2 mi NNE 9.2 mph - N/A   Partly Cloudy
10:00 AM 29 °F - 25 °F 78% 30.35 in 6 mi NNE 8.9 mph - -   Scattered Clouds
10:20 AM 30.2 °F 24.3 °F 24.8 °F 80% 30.30 in 6.2 mi NNE 5.8 mph - N/A   Partly Cloudy
10:50 AM 30.2 °F 24.3 °F 24.8 °F 80% 30.30 in 6.2 mi NNE 5.8 mph - N/A   Partly Cloudy
11:20 AM 30.2 °F 23.4 °F 26.6 °F 86% 30.33 in 6.2 mi NNE 6.9 mph - N/A   Mostly Cloudy
11:50 AM 30.2 °F 24.3 °F 26.6 °F 86% 30.33 in 6.2 mi NE 5.8 mph - N/A   Mostly Cloudy
12:20 PM 30.2 °F 21.9 °F 26.6 °F 86% 30.33 in 6.2 mi NE 9.2 mph - N/A   Mostly Cloudy
12:50 PM 30.2 °F 22.6 °F 24.8 °F 80% 30.33 in 6.2 mi NE 8.1 mph - N/A   Mostly Cloudy
1:00 PM 30 °F - 26 °F 77% 30.37 in 7 mi NE 6.7 mph - -   Mostly Cloudy
1:20 PM 30.2 °F 25.4 °F 24.8 °F 80% 30.33 in 6.2 mi North 4.6 mph - N/A   Mostly Cloudy
1:50 PM 30.2 °F 24.3 °F 24.8 °F 80% 30.33 in 6.2 mi NNE 5.8 mph - N/A   Partly Cloudy
2:20 PM 30.2 °F 24.3 °F 24.8 °F 80% 30.33 in 6.2 mi NNE 5.8 mph - N/A   Partly Cloudy
2:50 PM 32.0 °F 26.4 °F 24.8 °F 75% 30.33 in 6.2 mi North 5.8 mph - N/A   Partly Cloudy
3:20 PM 32.0 °F 26.4 °F 24.8 °F 75% 30.33 in 6.2 mi North 5.8 mph - N/A   Partly Cloudy
3:50 PM 30.2 °F 24.3 °F 24.8 °F 80% 30.33 in 6.2 mi North 5.8 mph - N/A   Partly Cloudy
4:00 PM 31 °F - 24 °F 68% 30.38 in 9 mi North 4.5 mph - -   Partly Cloudy
4:20 PM 30.2 °F 26.7 °F 23.0 °F 75% 30.33 in 6.2 mi ENE 3.5 mph - N/A   Partly Cloudy
4:50 PM 28.4 °F - 24.8 °F 86% 30.33 in 6.2 mi Variable 1.2 mph - N/A   Partly Cloudy
5:20 PM 28.4 °F - 24.8 °F 86% 30.33 in 6.2 mi Variable 2.3 mph - N/A   Partly Cloudy
5:50 PM 28.4 °F 24.6 °F 24.8 °F 86% 30.33 in 6.2 mi South 3.5 mph - N/A   Partly Cloudy
6:20 PM 28.4 °F 24.6 °F 24.8 °F 86% 30.33 in 6.2 mi SSW 3.5 mph - N/A   Partly Cloudy
6:50 PM 28.4 °F 24.6 °F 24.8 °F 86% 30.33 in 6.2 mi WSW 3.5 mph - N/A   Partly Cloudy
7:00 PM 29 °F - 24 °F 76% 30.39 in 6 mi WSW 2.2 mph - -   Scattered Clouds
7:20 PM 28.4 °F 22.2 °F 23.0 °F 80% 30.33 in 5.6 mi WSW 5.8 mph - N/A   Unknown
7:50 PM 26.6 °F - 23.0 °F 86% 30.33 in - WSW 2.3 mph - N/A   Clear
8:20 PM 26.6 °F 22.6 °F 23.0 °F 86% 30.33 in - SW 3.5 mph - N/A   Clear
8:50 PM 26.6 °F 19.1 °F 23.0 °F 86% 30.33 in 4.3 mi SSW 6.9 mph - N/A   Unknown
9:20 PM 26.6 °F 20.0 °F 23.0 °F 86% 30.33 in 4.3 mi SW 5.8 mph - N/A   Unknown
9:50 PM 26.6 °F 19.1 °F 23.0 °F 86% 30.33 in 5.0 mi SW 6.9 mph - N/A   Unknown
10:00 PM 27 °F - 23 °F 77% 30.38 in 5 mi SW 6.7 mph - -   Clear
10:20 PM 26.6 °F 20.0 °F 23.0 °F 86% 30.33 in 5.0 mi SW 5.8 mph - N/A   Unknown
10:50 PM 26.6 °F 19.1 °F 23.0 °F 86% 30.33 in 5.0 mi SW 6.9 mph - N/A   Unknown
11:20 PM 24.8 °F 16.1 °F 21.2 °F 86% 30.30 in 5.0 mi SSW 8.1 mph - N/A   Unknown
11:50 PM 26.6 °F 19.1 °F 21.2 °F 80% 30.30 in 5.0 mi SW 6.9 mph - N/A   Unknown